Погода в Лукашкине Яре

Россия / Томская область     60°19′55″N   78°23′58″E
темп.,
°C
ветер,
м/с
пор.,
м/с
влажн.,
%
обл.,
%
осадки,
мм/ч
давл.,
гПа
погр.,
м
12 мая, ср
ср1201:00+10юв3351100 0.0 102122
04:00+8ю3355100 0.0 102039
07:00+9ю3457100 0.0 101895
10:00+12ююз344993 0.0 1016254
13:00+12з5578100 0.8 1016427
16:00+10ссз7878100 0.5 1017749
19:00+8ссз81178100 0.7 1019692
22:00+7с6127411 0.0 1020741
13 мая, чт
чт1301:00+4ссз37820 0.0 1020125
04:00+3ссз347770 0.0 102047
07:00+4ссз22650 0.0 102086
10:00+9зюз2348100 0.0 1018403
13:00+13зюз4538100 0.0 10161485
16:00+9з6865100 0.3 1016920
19:00+9сз61178100 0.6 1017812
22:00+7ссз81266100 0.0 1020712
14 мая, пт
пт1401:00+3ссз7126812 0.0 1022665
04:00+2ссз510634 0.0 1023349
07:00+2ссз59615 0.0 1024566
10:00+6сз5740100 0.0 1024809
13:00+10зсз563591 0.0 1023974
16:00+14зюз6934100 0.0 10191502
19:00+13ююз6146094 1.5 1016524
22:00+15зюз71368100 0.3 1013232
15 мая, сб
сб1501:00+14зюз7158516 0.4 1011286
04:00+14з6128768 0.2 1012224
07:00+14з498627 0.3 1012228
10:00+19зсз695938 0.0 1012544
13:00+23з6945100 0.0 10111378
16:00+22з5950100 0.0 1010725
19:00+24зсз594588 0.1 10092194
22:00+16юз2483100 1.3 1010105
16 мая, вс
вс1601:00+15зюз4989100 2.3 1008238
04:00+14зсз499199 0.1 1008231
07:00+13с3393100 0.2 1007239
10:00+13ссв2386100 0.1 1007285
13:00+12ссв4688100 4.3 1009526
16:00+9с697972 0.3 1013708
19:00+8с7970100 0.3 1016941
22:00+7ссв6767100 0.0 10201066